QPF
0.00 0.00 0.00 0.00 0.00 0.00 0.00 0.00 0.00 0.00 0.00 0.00 0.00 0.00 0.00 0.00 0.00 0.00 0.00 0.00 0.00 0.00 0.00 0.00 0.00 0.00 0.00 0.00 0.00 0.00 0.00 0.00 0.00 0.00 0.00 0.00 0.00 0.00 0.00 0.00 0.00 0.00 0.00 0.00
0.00 0.00 0.00 0.00 0.00 0.00 0.00 0.00 0.00 0.00 0.00 0.00 0.00 0.00 0.00 0.00 0.00 0.00 0.00 0.00 0.00 0.00 0.00 0.00 0.00 0.00 0.00 0.00 0.00 0.00 0.00 0.00 0.00 0.00 0.00 0.00 0.00 0.00 0.00 0.00 0.00 0.00 0.00 0.00
0.00 0.00 0.00 0.00 0.00 0.00 0.00 0.00 0.00 0.00 0.00 0.00 0.00 0.00 0.00 0.00 0.00 0.00 0.00 0.00 0.00 0.00 0.00 0.00 0.00 0.00 0.00 0.00 0.00 0.00 0.00 0.00 0.00 0.00 0.00 0.00 0.00 0.00 0.00 0.00 0.00 0.00 0.00 0.00
0.00 0.00 0.00 0.00 0.00 0.00 0.00 0.00 0.00 0.00 0.00 0.00 0.00 0.00 0.00 0.00 0.00 0.00 0.00 0.00 0.00 0.00 0.00 0.00 0.00 0.00 0.00 0.00 0.00 0.00 0.00 0.00 0.00 0.00 0.00 0.00 0.00 0.00 0.00 0.00 0.00 0.00 0.00 0.00
0.00 0.00 0.00 0.00 0.00 0.00 0.00 0.00 0.00 0.00 0.00 0.00 0.00 0.00 0.00 0.00 0.00 0.00 0.00 0.00 0.00 0.00 0.00 0.00 0.00 0.00 0.00 0.00 0.00 0.00 0.00 0.00 0.00 0.00 0.00 0.00 0.00 0.00 0.00 0.00 0.00 0.00 0.00 0.00
0.00 0.00 0.00 0.00 0.00 0.00 0.00 0.00 0.00 0.00 0.00 0.00 0.00 0.00 0.00 0.00 0.00 0.00 0.00 0.00 0.00 0.00 0.00 0.00 0.00 0.00 0.00 0.00 0.00 0.00 0.00 0.00 0.00 0.00 0.00 0.00 0.00 0.00 0.00 0.00 0.00 0.00 0.00 0.00
0.00 0.00 0.00 0.00 0.00 0.00 0.00 0.00 0.00 0.00 0.00 0.00 0.00 0.00 0.00 0.00 0.00 0.00 0.00 0.00 0.00 0.00 0.00 0.00 0.00 0.00 0.00 0.00 0.00 0.00 0.00 0.00 0.00 0.00 0.00 0.00 0.00 0.00 0.00 0.00 0.00 0.00 0.00 0.00
0.00 0.00 0.00 0.00 0.00 0.00 0.00 0.00 0.00 0.00 0.00 0.00 0.00 0.00 0.00 0.00 0.00 0.00 0.00 0.00 0.00 0.00 0.00 0.00 0.00 0.00 0.00 0.00 0.00 0.00 0.00 0.00 0.00 0.00 0.00 0.00 0.00 0.00 0.00 0.00 0.00 0.00 0.00 0.00
0.00 0.00 0.00 0.00 0.00 0.00 0.00 0.00 0.00 0.00 0.00 0.00 0.00 0.00 0.00 0.00 0.00 0.00 0.00 0.00 0.00 0.00 0.00 0.00 0.00 0.00 0.00 0.00 0.00 0.00 0.00 0.00 0.00 0.00 0.00 0.00 0.00 0.00 0.00 0.00 0.00 0.00 0.00 0.00
0.00 0.00 0.00 0.00 0.00 0.00 0.00 0.00 0.00 0.00 0.00 0.00 0.00 0.00 0.00 0.00 0.00 0.00 0.00 0.00 0.00 0.00 0.00 0.00 0.00 0.00 0.00 0.00 0.00 0.00 0.00 0.00 0.00 0.00 0.00 0.00 0.00 0.00 0.00 0.00 0.00 0.00 0.00 0.00
0.00 0.00 0.00 0.00 0.00 0.00 0.00 0.00 0.00 0.00 0.00 0.00 0.00 0.00 0.00 0.00 0.00 0.00 0.00 0.00 0.00 0.00 0.00 0.00 0.00 0.00 0.00 0.00 0.00 0.00 0.00 0.00 0.00 0.00 0.00 0.00 0.00 0.00 0.00 0.00 0.00 0.00 0.00 0.00
0.00 0.00 0.00 0.00 0.00 0.00 0.00 0.00 0.00 0.00 0.00 0.00 0.00 0.00 0.00 0.00 0.00 0.00 0.00 0.00 0.00 0.00 0.00 0.00 0.00 0.00 0.00 0.00 0.00 0.00 0.00 0.00 0.00 0.00 0.00 0.00 0.00 0.00 0.00 0.00 0.00 0.00 0.00 0.00
0.00 0.00 0.00 0.00 0.00 0.00 0.00 0.00 0.00 0.00 0.00 0.00 0.00 0.00 0.00 0.00 0.00 0.00 0.00 0.00 0.00 0.00 0.00 0.00 0.00 0.00 0.00 0.00 0.00 0.00 0.00 0.00 0.00 0.00 0.00 0.00 0.00 0.00 0.00 0.00 0.00 0.00 0.00 0.00
0.00 0.00 0.00 0.00 0.00 0.00 0.00 0.00 0.00 0.00 0.00 0.00 0.00 0.00 0.00 0.00 0.00 0.00 0.00 0.00 0.00 0.00 0.00 0.00 0.00 0.00 0.00 0.00 0.00 0.00 0.00 0.00 0.00 0.00 0.00 0.00 0.00 0.00 0.00 0.00 0.00 0.00 0.00 0.00
0.00 0.00 0.00 0.00 0.00 0.00 0.00 0.00 0.00 0.00 0.00 0.00 0.00 0.00 0.00 0.00 0.00 0.00 0.00 0.00 0.00 0.00 0.00 0.00 0.00 0.00 0.00 0.00 0.00 0.00 0.00 0.00 0.00 0.00 0.00 0.00 0.00 0.00 0.00 0.00 0.00 0.00 0.00 0.00
0.00 0.00 0.00 0.00 0.00 0.00 0.00 0.00 0.00 0.00 0.00 0.00 0.00 0.00 0.00 0.00 0.00 0.00 0.00 0.00 0.00 0.00 0.00 0.00 0.00 0.00 0.00 0.00 0.00 0.00 0.00 0.00 0.00 0.00 0.00 0.00 0.00 0.00 0.00 0.00 0.00 0.00 0.00 0.00
0.00 0.00 0.00 0.00 0.00 0.00 0.00 0.00 0.00 0.00 0.00 0.00 0.00 0.00 0.00 0.00 0.00 0.00 0.00 0.00 0.00 0.00 0.00 0.00 0.00 0.00 0.00 0.00 0.00 0.00 0.00 0.00 0.00 0.00 0.00 0.00 0.00 0.00 0.00 0.00 0.00 0.00 0.00 0.00
0.00 0.00 0.00 0.00 0.00 0.00 0.00 0.00 0.00 0.00 0.00 0.00 0.00 0.00 0.00 0.00 0.00 0.00 0.00 0.00 0.00 0.00 0.00 0.00 0.00 0.00 0.00 0.00 0.00 0.00 0.00 0.00 0.00 0.00 0.00 0.00 0.00 0.00 0.00 0.00 0.00 0.00 0.00 0.00
0.00 0.00 0.00 0.00 0.00 0.00 0.00 0.00 0.00 0.00 0.00 0.00 0.00 0.00 0.00 0.00 0.00 0.00 0.00 0.00 0.00 0.00 0.00 0.00 0.00 0.00 0.00 0.00 0.00 0.00 0.00 0.00 0.00 0.00 0.00 0.00 0.00 0.00 0.00 0.00 0.00 0.00 0.00 0.00
0.00 0.00 0.00 0.00 0.00 0.00 0.00 0.00 0.00 0.00 0.00 0.00 0.00 0.00 0.00 0.00 0.00 0.00 0.00 0.00 0.00 0.00 0.00 0.00 0.00 0.00 0.00 0.00 0.00 0.00 0.00 0.00 0.00 0.00 0.00 0.00 0.00 0.00 0.00 0.00 0.00 0.00 0.00 0.00
0.00 0.00 0.00 0.00 0.00 0.00 0.00 0.00 0.00 0.00 0.00 0.00 0.00 0.00 0.00 0.00 0.00 0.00 0.00 0.00 0.00 0.00 0.00 0.00 0.00 0.00 0.00 0.00 0.00 0.00 0.00 0.00 0.00 0.00 0.00 0.00 0.00 0.00 0.00 0.00 0.00 0.00 0.00 0.00
0.00 0.00 0.00 0.00 0.00 0.00 0.00 0.00 0.00 0.00 0.00 0.00 0.00 0.00 0.00 0.00 0.00 0.00 0.00 0.00 0.00 0.00 0.00 0.00 0.00 0.00 0.00 0.00 0.00 0.00 0.00 0.00 0.00 0.00 0.00 0.00 0.00 0.00 0.00 0.00 0.00 0.00 0.00 0.00
0.00 0.00 0.00 0.00 0.00 0.00 0.00 0.00 0.00 0.00 0.00 0.00 0.00 0.00 0.00 0.00 0.00 0.00 0.00 0.00 0.00 0.00 0.00 0.00 0.00 0.00 0.00 0.00 0.00 0.00 0.00 0.00 0.00 0.00 0.00 0.00 0.00 0.00 0.00 0.00 0.00 0.00 0.00 0.00
0.00 0.00 0.00 0.00 0.00 0.00 0.00 0.00 0.00 0.00 0.00 0.00 0.00 0.00 0.00 0.00 0.00 0.00 0.00 0.00 0.00 0.00 0.00 0.00 0.00 0.00 0.00 0.00 0.00 0.00 0.00 0.00 0.00 0.00 0.00 0.00 0.00 0.00 0.00 0.00 0.00 0.00 0.00 0.00
0.00 0.00 0.00 0.00 0.00 0.00 0.00 0.00 0.00 0.00 0.00 0.00 0.00 0.00 0.00 0.00 0.00 0.00 0.00 0.00 0.00 0.00 0.00 0.00 0.00 0.00 0.00 0.00 0.00 0.00 0.00 0.00 0.00 0.00 0.00 0.00 0.00 0.00 0.00 0.00 0.00 0.00 0.00 0.00
0.00 0.00 0.00 0.00 0.00 0.00 0.00 0.00 0.00 0.00 0.00 0.00 0.00 0.00 0.00 0.00 0.00 0.00 0.00 0.00 0.00 0.00 0.00 0.00 0.00 0.00 0.00 0.00 0.00 0.00 0.00 0.00 0.00 0.00 0.00 0.00 0.00 0.00 0.00 0.00 0.00 0.00 0.00 0.00
MSLP
1018.39 1017.97 1017.01 1016.58 1016.78 1017.05 1017.01 1016.97 1016.71 1017.10 1017.62 1017.82 1017.39 1017.43 1018.18 1019.70 1020.65 1021.39 1022.20 1022.93 1023.60 1024.36 1025.09 1025.33 1025.35 1025.21 1024.95 1024.85 1024.57 1024.43 1024.45 1024.39 1024.14 1024.07 1024.53 1025.16 1025.58 1026.25 1026.62 1026.92 1026.86 1026.79 1026.70 1026.58
1018.75 1017.38 1016.67 1017.34 1017.62 1017.56 1017.61 1017.39 1017.12 1017.55 1018.02 1018.18 1017.60 1017.42 1017.74 1019.53 1020.24 1021.16 1022.00 1022.87 1023.55 1024.39 1024.92 1025.36 1025.64 1025.67 1025.49 1025.27 1025.03 1024.87 1024.94 1025.04 1024.89 1024.98 1025.24 1025.83 1026.66 1027.45 1027.67 1027.87 1027.86 1027.74 1027.58 1027.28
1017.16 1017.06 1017.04 1017.47 1017.93 1017.98 1017.72 1017.55 1017.37 1017.74 1018.36 1018.51 1018.27 1017.09 1017.25 1019.07 1020.49 1021.58 1022.22 1022.78 1023.40 1023.84 1024.48 1025.11 1025.62 1025.96 1026.00 1025.96 1025.70 1025.15 1025.09 1025.15 1025.38 1025.69 1025.92 1026.30 1026.67 1027.28 1028.04 1028.57 1028.84 1028.79 1028.52 1028.46
1017.53 1017.42 1017.58 1017.72 1017.68 1017.73 1017.60 1017.78 1018.13 1018.37 1018.67 1018.13 1018.48 1016.15 1016.64 1018.09 1019.77 1021.21 1022.10 1022.73 1023.29 1024.06 1024.59 1025.08 1025.45 1025.93 1026.43 1026.69 1026.59 1026.08 1025.68 1025.45 1025.31 1025.26 1025.34 1026.15 1026.91 1027.54 1028.75 1029.22 1029.65 1029.70 1029.53 1029.12
1016.83 1017.39 1017.58 1017.48 1017.19 1017.83 1017.85 1018.28 1018.59 1018.76 1018.65 1018.80 1018.44 1018.19 1016.13 1017.99 1018.84 1020.27 1021.64 1022.55 1023.37 1024.29 1024.94 1025.41 1025.94 1026.43 1026.73 1026.94 1026.98 1026.77 1026.37 1026.50 1026.45 1026.53 1026.80 1027.00 1027.70 1028.47 1028.93 1029.61 1030.02 1030.12 1030.13 1030.12
1017.25 1017.70 1017.79 1017.25 1017.89 1018.09 1018.83 1019.13 1019.52 1019.59 1019.29 1018.17 1017.38 1017.81 1015.36 1016.63 1017.11 1018.75 1021.11 1022.31 1023.14 1024.15 1024.94 1025.85 1026.52 1026.86 1027.04 1027.41 1027.40 1027.20 1027.10 1027.09 1027.31 1027.00 1027.24 1027.72 1028.09 1028.60 1028.99 1029.81 1030.15 1030.47 1030.70 1030.88
1017.38 1017.30 1017.43 1017.71 1018.10 1018.84 1018.52 1018.82 1019.28 1019.42 1019.20 1017.29 1017.39 1017.46 1014.68 1015.69 1016.88 1017.90 1019.41 1021.08 1022.49 1023.85 1024.75 1025.45 1026.18 1026.76 1027.29 1027.67 1027.87 1027.77 1027.62 1027.73 1027.82 1027.63 1028.07 1028.39 1028.88 1029.09 1029.35 1029.89 1030.15 1030.15 1030.62 1030.86
1016.21 1016.68 1016.61 1016.84 1016.48 1017.05 1017.91 1017.58 1017.66 1017.81 1018.06 1017.32 1017.91 1016.15 1015.19 1016.23 1017.45 1018.43 1019.10 1020.56 1021.99 1023.25 1024.31 1025.21 1025.82 1026.50 1027.15 1027.68 1027.79 1027.86 1027.97 1028.08 1028.30 1028.15 1028.32 1028.72 1029.23 1029.73 1029.99 1030.47 1030.67 1030.93 1031.19 1031.64
1015.20 1015.70 1016.09 1016.43 1016.64 1016.81 1017.75 1017.63 1017.44 1018.07 1018.86 1017.75 1015.81 1015.46 1015.61 1016.82 1017.92 1018.96 1019.78 1020.94 1021.76 1022.61 1023.67 1024.51 1025.15 1025.78 1026.61 1027.34 1027.58 1027.59 1027.85 1028.39 1028.55 1028.67 1028.86 1029.03 1029.47 1029.79 1030.24 1030.86 1031.26 1031.37 1031.55 1031.93
1014.31 1015.33 1016.29 1016.86 1016.86 1017.13 1016.67 1016.39 1017.61 1017.59 1017.08 1016.26 1014.96 1014.91 1014.22 1015.84 1016.80 1018.46 1019.59 1020.29 1021.22 1022.25 1023.31 1024.10 1024.77 1025.48 1026.35 1027.04 1027.57 1027.91 1028.14 1028.31 1028.61 1029.11 1029.31 1029.62 1030.13 1030.44 1030.86 1031.20 1031.20 1031.38 1031.79 1031.88
1014.40 1015.35 1016.78 1017.02 1016.26 1015.35 1016.51 1016.21 1016.01 1015.61 1015.40 1014.98 1014.47 1013.19 1013.05 1013.86 1015.22 1016.81 1018.11 1019.15 1020.04 1021.18 1022.23 1023.14 1024.03 1024.87 1025.66 1026.27 1027.08 1027.75 1028.43 1028.57 1028.82 1029.23 1029.63 1030.12 1030.38 1030.57 1031.08 1031.40 1031.59 1031.65 1031.91 1032.09
1013.72 1014.95 1015.63 1015.44 1015.50 1015.57 1014.89 1014.54 1014.58 1013.98 1014.78 1014.74 1014.41 1012.61 1013.32 1014.14 1014.93 1016.06 1017.08 1018.28 1019.51 1020.69 1021.64 1022.44 1023.34 1024.29 1024.99 1025.79 1026.49 1027.23 1028.09 1028.33 1028.63 1029.12 1029.60 1029.89 1030.20 1030.83 1031.04 1031.41 1031.66 1031.96 1031.86 1032.12
1013.12 1014.30 1015.28 1015.08 1015.69 1015.77 1014.77 1014.24 1013.65 1013.45 1013.87 1012.79 1013.67 1012.13 1013.57 1014.38 1015.04 1015.77 1016.61 1017.59 1018.79 1019.94 1020.99 1021.87 1022.73 1023.41 1024.22 1025.07 1025.88 1026.46 1027.34 1027.79 1028.19 1028.69 1029.32 1029.87 1030.05 1030.39 1030.55 1031.04 1031.48 1031.75 1032.07 1031.95
1011.52 1012.73 1012.52 1011.45 1011.54 1012.16 1013.47 1012.85 1012.95 1012.88 1012.44 1011.34 1010.40 1011.70 1013.34 1013.79 1014.51 1015.53 1016.43 1017.03 1017.85 1018.97 1020.08 1021.06 1022.04 1022.59 1023.53 1024.30 1025.05 1025.69 1026.53 1027.24 1027.92 1028.55 1028.98 1029.29 1029.59 1030.09 1030.31 1030.63 1031.19 1031.50 1031.95 1031.88
1011.70 1011.83 1012.00 1011.14 1011.27 1011.67 1011.56 1011.45 1012.11 1011.52 1009.62 1010.45 1008.97 1010.61 1011.50 1012.40 1013.41 1014.10 1014.89 1016.23 1017.45 1018.29 1019.13 1019.92 1020.77 1021.60 1022.72 1023.63 1024.28 1024.71 1025.65 1026.41 1027.01 1027.70 1028.27 1028.70 1029.19 1029.67 1030.33 1030.63 1031.39 1031.69 1031.86 1032.06
1012.12 1011.43 1011.87 1011.21 1011.27 1011.63 1011.61 1011.38 1010.36 1010.00 1009.79 1009.82 1009.92 1010.05 1010.85 1011.87 1013.16 1014.08 1014.75 1015.81 1016.66 1017.33 1018.20 1019.23 1020.24 1021.09 1021.74 1022.57 1023.18 1024.17 1025.11 1025.76 1026.58 1026.87 1027.65 1028.33 1028.99 1029.66 1030.12 1030.71 1031.27 1031.66 1032.03 1032.26
1012.20 1012.09 1012.23 1010.86 1011.62 1012.56 1012.38 1008.11 1010.46 1009.60 1009.44 1009.69 1009.74 1009.72 1011.47 1012.82 1013.28 1013.63 1014.40 1015.27 1015.84 1016.73 1017.59 1018.54 1019.37 1020.19 1021.02 1021.74 1022.31 1023.20 1023.99 1025.12 1025.89 1026.62 1027.32 1028.11 1028.76 1029.33 1030.10 1030.57 1031.06 1031.39 1031.63 1031.91
1011.93 1012.49 1012.58 1012.15 1012.93 1012.03 1008.98 1009.53 1009.38 1009.85 1010.00 1010.53 1010.89 1011.35 1011.91 1012.71 1013.24 1013.79 1014.37 1014.90 1015.79 1016.66 1017.41 1018.26 1019.06 1019.83 1020.48 1021.24 1022.05 1022.66 1023.63 1024.57 1025.50 1026.14 1026.84 1027.46 1028.25 1028.90 1029.64 1030.27 1030.72 1031.03 1031.29 1031.62
1012.35 1012.48 1012.83 1012.79 1012.19 1010.59 1010.55 1010.48 1010.50 1010.24 1009.79 1010.58 1011.34 1012.32 1013.50 1013.94 1014.25 1014.61 1014.94 1015.28 1015.76 1016.55 1017.29 1018.17 1018.75 1019.64 1020.49 1021.16 1021.67 1022.35 1023.35 1024.08 1024.90 1025.53 1026.08 1026.62 1027.57 1028.47 1029.31 1029.75 1030.19 1030.55 1030.93 1031.39
1013.01 1012.60 1012.35 1012.70 1011.67 1010.65 1009.01 1009.92 1010.63 1010.74 1010.65 1010.57 1011.57 1012.93 1013.91 1014.48 1014.73 1014.39 1015.01 1015.62 1016.28 1016.75 1017.44 1018.22 1019.07 1019.66 1020.26 1020.94 1021.60 1022.32 1022.98 1023.76 1024.26 1024.57 1024.99 1025.85 1026.93 1027.73 1028.58 1029.28 1029.80 1030.25 1030.71 1031.06
1012.84 1012.61 1011.83 1011.62 1011.17 1010.68 1010.41 1010.97 1011.53 1011.64 1011.20 1011.01 1012.07 1013.08 1014.04 1014.40 1014.04 1014.27 1014.99 1015.87 1016.33 1016.97 1017.64 1018.44 1019.26 1019.57 1019.81 1020.54 1021.38 1022.14 1022.64 1023.28 1023.21 1024.18 1025.03 1025.94 1026.56 1027.28 1028.13 1028.96 1029.61 1030.21 1030.59 1030.80
1011.08 1011.48 1011.40 1011.65 1011.49 1011.01 1010.89 1012.02 1012.05 1011.57 1011.62 1011.92 1012.73 1013.21 1013.71 1014.18 1014.58 1014.95 1015.41 1016.11 1016.90 1017.50 1018.13 1018.56 1019.25 1019.61 1019.73 1020.35 1021.10 1021.66 1022.23 1022.02 1023.19 1024.19 1024.82 1025.66 1026.35 1027.07 1027.98 1028.76 1029.46 1029.98 1030.25 1030.37
1011.22 1010.10 1010.23 1010.52 1010.26 1010.51 1010.98 1011.33 1011.52 1011.85 1011.72 1012.50 1012.63 1013.04 1013.97 1014.27 1014.91 1015.54 1016.11 1016.65 1017.25 1018.07 1018.53 1018.78 1019.18 1019.63 1020.10 1020.38 1020.82 1021.49 1021.19 1022.40 1023.25 1024.11 1024.74 1025.66 1026.45 1027.06 1027.77 1028.49 1028.99 1029.31 1029.52 1029.44
1010.81 1010.38 1010.42 1010.78 1011.03 1011.15 1011.46 1011.78 1012.01 1012.38 1012.15 1012.48 1012.82 1013.27 1013.99 1014.42 1015.19 1015.95 1016.63 1017.09 1017.39 1018.01 1018.43 1019.00 1019.37 1019.67 1019.92 1020.22 1020.77 1021.10 1021.58 1022.35 1023.14 1023.83 1024.69 1025.63 1026.36 1026.98 1027.67 1028.01 1028.25 1028.35 1028.28 1028.34
1010.34 1010.28 1010.65 1011.15 1011.28 1011.70 1011.98 1012.14 1012.18 1012.43 1012.64 1012.74 1013.16 1013.40 1013.71 1014.30 1015.18 1015.80 1016.50 1016.86 1017.38 1018.07 1018.53 1019.00 1019.18 1019.45 1019.52 1020.03 1020.47 1021.21 1021.76 1022.34 1023.11 1023.84 1024.62 1025.35 1026.05 1026.73 1026.95 1027.27 1027.29 1027.40 1027.39 1027.49
1009.73 1009.84 1010.05 1009.93 1010.17 1010.48 1010.86 1010.65 1011.70 1012.23 1012.44 1012.88 1013.23 1013.67 1014.00 1014.39 1015.01 1015.77 1016.38 1016.79 1017.47 1018.10 1018.55 1019.07 1019.20 1019.49 1019.39 1020.24 1020.80 1021.39 1021.89 1022.27 1022.95 1023.79 1024.43 1024.93 1025.43 1025.90 1026.20 1026.41 1026.57 1026.59 1026.43 1026.49
Thickness
5656 5660 5664 5672 5669 5665 5662 5660 5665 5663 5657 5654 5665 5669 5666 5650 5645 5642 5638 5634 5629 5623 5615 5614 5613 5614 5617 5618 5619 5619 5618 5616 5617 5617 5612 5605 5600 5593 5589 5585 5584 5583 5581 5579
5644 5654 5670 5656 5652 5650 5647 5649 5656 5653 5645 5643 5654 5656 5667 5644 5645 5641 5635 5629 5625 5616 5612 5607 5605 5605 5606 5607 5609 5609 5607 5603 5602 5601 5597 5590 5582 5573 5570 5568 5567 5566 5564 5564
5654 5658 5655 5649 5639 5637 5642 5642 5650 5644 5633 5630 5632 5647 5659 5639 5628 5625 5625 5624 5620 5619 5612 5605 5599 5596 5596 5596 5597 5600 5599 5595 5591 5585 5582 5579 5574 5565 5557 5551 5547 5545 5545 5542
5642 5645 5640 5639 5639 5641 5635 5639 5633 5628 5624 5629 5624 5644 5653 5646 5630 5619 5616 5616 5614 5607 5601 5597 5594 5590 5584 5582 5583 5585 5587 5587 5587 5585 5583 5573 5565 5557 5543 5537 5531 5528 5526 5526
5645 5629 5631 5633 5643 5633 5634 5624 5621 5619 5619 5609 5615 5620 5657 5625 5632 5622 5613 5609 5605 5597 5590 5586 5582 5577 5574 5571 5570 5569 5570 5567 5565 5562 5558 5554 5545 5536 5530 5521 5515 5512 5509 5505
5629 5622 5625 5635 5620 5623 5608 5605 5600 5598 5601 5600 5624 5618 5650 5642 5645 5635 5611 5601 5596 5586 5579 5571 5565 5562 5561 5557 5556 5555 5554 5552 5548 5548 5543 5536 5531 5524 5518 5507 5501 5494 5488 5483
5614 5616 5616 5614 5612 5601 5608 5606 5594 5586 5585 5605 5598 5603 5652 5648 5635 5634 5620 5605 5592 5579 5571 5565 5559 5553 5547 5543 5540 5539 5538 5535 5532 5531 5524 5520 5512 5507 5502 5494 5487 5484 5475 5468
5609 5610 5612 5612 5623 5611 5597 5609 5602 5587 5592 5612 5573 5604 5637 5623 5611 5609 5615 5604 5589 5577 5568 5558 5552 5545 5538 5531 5529 5526 5522 5519 5515 5513 5509 5503 5494 5487 5481 5472 5466 5460 5453 5444
5602 5603 5601 5601 5601 5608 5591 5587 5600 5571 5527 5583 5614 5614 5623 5597 5594 5589 5593 5585 5577 5570 5559 5552 5546 5539 5530 5522 5518 5515 5509 5502 5499 5495 5491 5486 5478 5472 5464 5454 5445 5438 5431 5423
5606 5596 5584 5583 5590 5585 5594 5602 5576 5579 5579 5589 5605 5604 5638 5606 5605 5584 5575 5576 5572 5563 5551 5543 5535 5527 5518 5510 5502 5497 5493 5490 5483 5475 5471 5464 5456 5449 5441 5433 5428 5421 5412 5405
5592 5587 5571 5572 5583 5601 5583 5583 5585 5595 5590 5595 5604 5621 5628 5625 5612 5593 5585 5578 5572 5558 5546 5536 5527 5518 5509 5502 5492 5484 5475 5471 5466 5458 5452 5443 5437 5431 5420 5412 5405 5398 5390 5383
5591 5572 5568 5577 5575 5573 5591 5595 5592 5597 5576 5580 5585 5619 5600 5600 5598 5593 5586 5570 5561 5547 5536 5528 5518 5507 5499 5490 5481 5473 5462 5457 5452 5444 5435 5428 5420 5408 5400 5391 5383 5375 5369 5362
5583 5564 5559 5566 5563 5554 5570 5579 5590 5596 5575 5586 5582 5615 5580 5576 5577 5575 5574 5560 5547 5536 5526 5516 5507 5499 5489 5479 5470 5463 5451 5444 5438 5430 5419 5409 5401 5392 5384 5373 5363 5356 5348 5343
5587 5567 5575 5596 5606 5598 5573 5585 5582 5584 5581 5597 5599 5605 5576 5578 5574 5561 5552 5548 5540 5528 5518 5507 5497 5491 5480 5470 5461 5452 5441 5431 5423 5412 5403 5395 5386 5375 5366 5355 5346 5337 5329 5324
5571 5562 5572 5590 5591 5581 5584 5588 5575 5576 5602 5585 5616 5590 5588 5582 5570 5566 5558 5544 5528 5519 5512 5505 5494 5484 5471 5460 5451 5444 5430 5420 5411 5400 5389 5379 5370 5359 5346 5337 5325 5318 5310 5302
5546 5560 5562 5566 5574 5562 5562 5571 5578 5579 5583 5582 5587 5586 5587 5578 5558 5546 5538 5525 5518 5513 5504 5493 5481 5473 5463 5451 5442 5428 5416 5405 5394 5387 5375 5363 5352 5338 5329 5316 5307 5299 5289 5280
5538 5548 5531 5557 5559 5528 5519 5577 5563 5575 5576 5577 5571 5586 5554 5541 5539 5536 5527 5515 5514 5505 5493 5483 5473 5463 5451 5440 5432 5420 5406 5392 5382 5370 5357 5345 5335 5323 5311 5300 5290 5281 5272 5262
5520 5521 5516 5529 5504 5519 5563 5542 5564 5554 5553 5539 5532 5530 5533 5531 5524 5518 5510 5505 5497 5486 5477 5468 5459 5449 5438 5427 5415 5405 5391 5378 5365 5355 5343 5331 5320 5309 5297 5284 5273 5264 5254 5245
5497 5509 5485 5501 5508 5535 5507 5514 5526 5533 5549 5527 5530 5512 5497 5490 5494 5498 5489 5484 5481 5471 5462 5451 5442 5432 5419 5408 5400 5388 5373 5363 5352 5342 5330 5319 5307 5294 5280 5268 5257 5249 5239 5229
5469 5481 5504 5470 5507 5526 5553 5510 5498 5513 5525 5509 5506 5490 5476 5476 5489 5504 5468 5463 5456 5450 5440 5430 5420 5410 5400 5390 5380 5369 5360 5348 5340 5330 5320 5307 5292 5280 5267 5254 5243 5234 5224 5216
5471 5472 5494 5482 5492 5498 5494 5479 5476 5498 5518 5488 5485 5471 5462 5467 5481 5469 5454 5444 5440 5431 5421 5410 5400 5393 5387 5375 5364 5356 5346 5334 5328 5314 5302 5288 5277 5265 5253 5240 5229 5218 5210 5204
5488 5480 5480 5470 5477 5489 5467 5456 5478 5479 5461 5465 5460 5454 5450 5447 5442 5439 5434 5427 5418 5410 5399 5392 5383 5376 5369 5359 5350 5343 5330 5325 5309 5297 5286 5274 5262 5250 5237 5225 5214 5205 5198 5191
5473 5484 5479 5483 5487 5449 5454 5451 5446 5443 5452 5445 5448 5440 5436 5430 5423 5418 5412 5405 5397 5389 5379 5372 5366 5360 5350 5341 5334 5325 5321 5303 5291 5280 5270 5256 5244 5235 5223 5211 5203 5195 5188 5183
5436 5438 5451 5451 5434 5429 5430 5420 5422 5420 5430 5429 5432 5425 5418 5414 5408 5400 5392 5383 5377 5366 5358 5350 5344 5340 5334 5324 5315 5310 5298 5287 5276 5266 5252 5240 5229 5218 5207 5200 5193 5187 5182 5177
5435 5429 5417 5412 5410 5405 5403 5400 5402 5405 5408 5409 5407 5408 5408 5402 5390 5383 5373 5364 5358 5349 5338 5332 5328 5323 5320 5308 5300 5290 5281 5271 5260 5248 5237 5226 5215 5204 5197 5189 5184 5178 5173 5167
5420 5418 5418 5416 5407 5409 5405 5405 5392 5392 5393 5389 5388 5385 5381 5381 5375 5363 5355 5348 5339 5332 5322 5311 5307 5304 5303 5292 5282 5271 5262 5255 5244 5233 5223 5214 5205 5196 5188 5182 5175 5169 5164 5158